N101NT ESNQ-EVVA

Flight info

Callsign N101NT
Flight time N/A
Altitude 47000
Route VAGAS T317 OSK T318 SIPRI/N0510F380 N5 VACRA/N0469F270 L870 XILAN N616 NEKET DCT MILTA
Aircraft GLF6/M-SBDE2E3FGHIJ4J5M1RWXY/LB1D1

Departure

Time 2026-04-29 18:21
Airport Kiruna Airport (ESNQ)

Arrival

Time N/A
Airport Ventspils International Airport (EVVA)
Time Latitude Longitude Altitude Speed Heading
2026-04-29 17:59 67.82390 20.33344 1459 ft 0 kts 302°
2026-04-29 18:05 67.82390 20.33345 1462 ft 0 kts 302°
2026-04-29 18:15 67.82395 20.33325 1463 ft 1 kts 302°
2026-04-29 18:15 67.82400 20.33309 1461 ft 3 kts 313°
2026-04-29 18:16 67.82415 20.33314 1461 ft 0 kts 33°
2026-04-29 18:17 67.82426 20.33381 1462 ft 11 kts 80°
2026-04-29 18:18 67.82460 20.33572 1460 ft 8 kts 83°
2026-04-29 18:18 67.82454 20.33653 1457 ft 3 kts 110°
2026-04-29 18:18 67.82429 20.33756 1459 ft 1 kts 123°
2026-04-29 18:18 67.82429 20.33757 1459 ft 0 kts 123°
2026-04-29 18:20 67.82418 20.33802 1459 ft 10 kts 123°
2026-04-29 18:20 67.82333 20.33970 1461 ft 20 kts 197°
2026-04-29 18:21 67.82083 20.33501 1464 ft 81 kts 214°
2026-04-29 18:21 67.81402 20.32292 1518 ft 149 kts 213°
2026-04-29 18:21 67.80491 20.30659 2331 ft 167 kts 216°
2026-04-29 18:21 67.79473 20.28712 3280 ft 197 kts 220°
2026-04-29 18:22 67.78036 20.27090 3644 ft 266 kts 192°
2026-04-29 18:22 67.76077 20.27398 4820 ft 296 kts 175°
2026-04-29 18:22 67.73943 20.27788 6131 ft 320 kts 185°
2026-04-29 18:22 67.71653 20.27158 7369 ft 342 kts 194°
2026-04-29 18:23 67.69287 20.26009 9108 ft 350 kts 194°
2026-04-29 18:23 67.66828 20.25110 10749 ft 364 kts 190°
2026-04-29 18:23 67.64237 20.24470 12068 ft 387 kts 189°
2026-04-29 18:23 67.61474 20.23637 13206 ft 410 kts 191°
2026-04-29 18:24 67.58662 20.22647 14816 ft 416 kts 192°
2026-04-29 18:24 67.55832 20.21759 16831 ft 414 kts 192°
2026-04-29 18:24 67.52915 20.20860 18118 ft 428 kts 192°
2026-04-29 18:24 67.49939 20.19927 19505 ft 435 kts 192°
2026-04-29 18:25 67.46907 20.18961 20817 ft 443 kts 193°
2026-04-29 18:25 67.43816 20.17984 22123 ft 451 kts 192°
2026-04-29 18:25 67.40665 20.17008 23402 ft 460 kts 193°
2026-04-29 18:25 67.37460 20.16009 24481 ft 470 kts 193°
2026-04-29 18:26 67.34221 20.14995 25439 ft 480 kts 193°
2026-04-29 18:26 67.30879 20.13889 26421 ft 489 kts 195°
2026-04-29 18:26 67.27475 20.12662 27402 ft 499 kts 195°
2026-04-29 18:26 67.24000 20.11453 28347 ft 509 kts 195°
2026-04-29 18:27 67.20446 20.10293 29310 ft 520 kts 195°
2026-04-29 18:27 67.16822 20.09087 30264 ft 529 kts 195°
2026-04-29 18:27 67.13144 20.07823 31134 ft 536 kts 195°
2026-04-29 18:27 67.09423 20.06565 32038 ft 543 kts 195°
2026-04-29 18:28 67.05651 20.05318 32896 ft 550 kts 195°
2026-04-29 18:28 67.01838 20.04058 33723 ft 556 kts 196°
2026-04-29 18:28 66.98039 20.02785 34433 ft 562 kts 195°
2026-04-29 18:28 66.94148 20.01488 35148 ft 565 kts 195°
2026-04-29 18:29 66.90219 20.00199 35785 ft 570 kts 194°
2026-04-29 18:29 66.87608 19.99343 36235 ft 573 kts 194°
2026-04-29 18:29 66.82300 19.97598 37193 ft 578 kts 193°
2026-04-29 18:29 66.78305 19.96289 37909 ft 581 kts 192°
2026-04-29 18:30 66.74306 19.94994 38934 ft 579 kts 192°
2026-04-29 18:30 66.70334 19.93697 39173 ft 590 kts 191°
2026-04-29 18:30 66.66192 19.92345 39664 ft 594 kts 190°
2026-04-29 18:30 66.62131 19.91046 40197 ft 598 kts 190°
2026-04-29 18:31 66.57990 19.89719 40647 ft 602 kts 190°
2026-04-29 18:31 66.53822 19.88376 41115 ft 606 kts 189°
2026-04-29 18:31 66.49618 19.87029 41570 ft 610 kts 189°
2026-04-29 18:31 66.45400 19.85691 42026 ft 614 kts 189°
2026-04-29 18:32 66.41163 19.84349 42477 ft 618 kts 189°
2026-04-29 18:32 66.32767 19.81692 44663 ft 599 kts 188°
2026-04-29 18:32 66.28690 19.80415 45119 ft 602 kts 188°
2026-04-29 18:33 66.20402 19.77825 45115 ft 593 kts 188°
2026-04-29 18:33 66.12223 19.75281 45122 ft 594 kts 188°
2026-04-29 18:34 66.05400 19.73177 45125 ft 594 kts 188°
2026-04-29 18:34 65.95867 19.70251 45123 ft 594 kts 188°
2026-04-29 18:35 65.87666 19.67754 45140 ft 594 kts 188°
2026-04-29 18:35 65.79459 19.65269 45136 ft 595 kts 188°
2026-04-29 18:36 65.71242 19.62798 45134 ft 595 kts 188°
2026-04-29 18:36 65.63077 19.60358 45117 ft 595 kts 188°
2026-04-29 18:37 65.54867 19.57921 45131 ft 594 kts 188°
2026-04-29 18:37 65.46660 19.55499 45135 ft 594 kts 188°
2026-04-29 18:38 65.38443 19.53090 45157 ft 595 kts 188°
2026-04-29 18:38 65.30208 19.50690 45148 ft 600 kts 188°
2026-04-29 18:39 65.21944 19.48300 45179 ft 602 kts 188°
2026-04-29 18:39 65.13645 19.45912 45175 ft 601 kts 188°
2026-04-29 18:40 65.05334 19.43536 45181 ft 602 kts 188°
2026-04-29 18:40 64.97012 19.41172 45176 ft 602 kts 188°
2026-04-29 18:41 64.80454 19.36515 45196 ft 601 kts 188°
2026-04-29 18:42 64.72130 19.34194 45198 ft 603 kts 188°
2026-04-29 18:42 64.63803 19.31888 45189 ft 602 kts 188°
2026-04-29 18:43 64.55559 19.29617 45186 ft 600 kts 188°
2026-04-29 18:43 64.47254 19.27345 45187 ft 602 kts 188°
2026-04-29 18:44 64.38938 19.25082 45189 ft 602 kts 188°
2026-04-29 18:44 64.30625 19.22836 45197 ft 601 kts 188°